Wetterdaten: Freitag, 10.05.2013
Datum Zeit Temp. Auen Feucht Auen Luftdruck Regen Richtung Richtung Windben
10.05.2013 00:00 16,6 C 81 % 1012,3 hPa 0,0 mm W 278 6,4 km/h (2 Bft)
10.05.2013 00:05 16,4 C 82 % 1012,3 hPa 0,0 mm W 270 3,2 km/h (1 Bft)
10.05.2013 00:10 16,1 C 83 % 1012,2 hPa 0,0 mm W 265 4,8 km/h (1 Bft)
10.05.2013 00:15 15,8 C 84 % 1012,2 hPa 0,0 mm W-NW 296 4,8 km/h (1 Bft)
10.05.2013 00:20 15,5 C 85 % 1012,2 hPa 0,0 mm W 263 4,8 km/h (1 Bft)
10.05.2013 00:25 15,4 C 86 % 1012,1 hPa 0,0 mm W 268 3,2 km/h (1 Bft)
10.05.2013 00:30 15,4 C 86 % 1012,1 hPa 0,0 mm W 268 1,6 km/h (1 Bft)
10.05.2013 00:35 15,2 C 87 % 1012,1 hPa 0,0 mm W 268 1,6 km/h (1 Bft)
10.05.2013 00:40 15,2 C 87 % 1012,0 hPa 0,0 mm W 268 0,0 km/h (0 Bft)
10.05.2013 00:45 15,1 C 88 % 1012,1 hPa 0,0 mm W 268 0,0 km/h (0 Bft)
10.05.2013 00:50 15,1 C 88 % 1011,9 hPa 0,0 mm W 268 0,0 km/h (0 Bft)
10.05.2013 00:55 15,1 C 88 % 1011,9 hPa 0,0 mm W 268 0,0 km/h (0 Bft)
10.05.2013 01:00 15,1 C 88 % 1011,9 hPa 0,0 mm W 268 0,0 km/h (0 Bft)
10.05.2013 01:05 14,9 C 89 % 1011,8 hPa 0,0 mm W 268 0,0 km/h (0 Bft)
10.05.2013 01:10 14,7 C 90 % 1011,8 hPa 0,0 mm W 268 0,0 km/h (0 Bft)
10.05.2013 01:15 14,8 C 90 % 1011,6 hPa 0,0 mm W 268 0,0 km/h (0 Bft)
10.05.2013 01:20 14,8 C 89 % 1011,6 hPa 0,0 mm N 0 0,0 km/h (0 Bft)
10.05.2013 01:25 14,7 C 90 % 1011,6 hPa 0,0 mm N 0 0,0 km/h (0 Bft)
10.05.2013 01:30 14,8 C 90 % 1011,5 hPa 0,0 mm W 268 0,0 km/h (0 Bft)
10.05.2013 01:35 14,8 C 89 % 1011,5 hPa 0,0 mm W 268 0,0 km/h (0 Bft)
10.05.2013 01:40 14,6 C 90 % 1011,4 hPa 0,0 mm W 268 0,0 km/h (0 Bft)
10.05.2013 01:45 14,4 C 90 % 1011,4 hPa 0,0 mm W 268 0,0 km/h (0 Bft)
10.05.2013 01:50 14,1 C 91 % 1011,3 hPa 0,0 mm W 268 0,0 km/h (0 Bft)
10.05.2013 01:55 13,9 C 91 % 1011,3 hPa 0,0 mm W 268 0,0 km/h (0 Bft)
10.05.2013 02:00 13,8 C 91 % 1011,3 hPa 0,0 mm W 268 0,0 km/h (0 Bft)
10.05.2013 02:05 13,7 C 91 % 1011,3 hPa 0,0 mm W 268 0,0 km/h (0 Bft)
10.05.2013 02:10 13,5 C 91 % 1011,3 hPa 0,0 mm W 268 0,0 km/h (0 Bft)
10.05.2013 02:15 13,4 C 92 % 1011,3 hPa 0,0 mm W 268 0,0 km/h (0 Bft)
10.05.2013 02:20 13,4 C 92 % 1011,2 hPa 0,0 mm W 268 0,0 km/h (0 Bft)
10.05.2013 02:25 13,3 C 91 % 1011,2 hPa 0,0 mm W 268 0,0 km/h (0 Bft)
10.05.2013 02:30 13,2 C 91 % 1011,2 hPa 0,0 mm W 268 1,6 km/h (1 Bft)
10.05.2013 02:35 13,1 C 92 % 1011,2 hPa 0,0 mm W 268 3,2 km/h (1 Bft)
10.05.2013 02:40 13,2 C 92 % 1011,2 hPa 0,0 mm W 268 0,0 km/h (0 Bft)
10.05.2013 02:45 13,3 C 92 % 1011,2 hPa 0,0 mm W 268 0,0 km/h (0 Bft)
10.05.2013 02:50 13,6 C 92 % 1011,2 hPa 0,0 mm W 268 1,6 km/h (1 Bft)
10.05.2013 02:55 13,2 C 91 % 1011,2 hPa 0,0 mm W-SW 252 1,6 km/h (1 Bft)
10.05.2013 03:00 13,2 C 92 % 1011,1 hPa 0,0 mm W-SW 252 1,6 km/h (1 Bft)
10.05.2013 03:05 13,4 C 92 % 1011,1 hPa 0,0 mm W-SW 252 0,0 km/h (0 Bft)
10.05.2013 03:10 13,4 C 92 % 1011,0 hPa 0,0 mm W-SW 252 0,0 km/h (0 Bft)
10.05.2013 03:15 13,3 C 92 % 1010,9 hPa 0,0 mm W-SW 252 0,0 km/h (0 Bft)
10.05.2013 03:20 13,3 C 92 % 1010,8 hPa 0,0 mm W-SW 252 0,0 km/h (0 Bft)
10.05.2013 03:25 13,3 C 92 % 1010,8 hPa 0,0 mm W-SW 252 0,0 km/h (0 Bft)
10.05.2013 03:30 13,3 C 92 % 1010,8 hPa 0,0 mm W-SW 252 0,0 km/h (0 Bft)
10.05.2013 03:35 13,1 C 92 % 1010,7 hPa 0,0 mm W-SW 252 0,0 km/h (0 Bft)
10.05.2013 03:40 12,7 C 92 % 1010,7 hPa 0,0 mm W-SW 252 0,0 km/h (0 Bft)
10.05.2013 03:45 12,6 C 92 % 1010,7 hPa 0,0 mm W-SW 252 1,6 km/h (1 Bft)
10.05.2013 03:50 12,6 C 93 % 1010,7 hPa 0,0 mm W-SW 252 0,0 km/h (0 Bft)
10.05.2013 03:55 12,6 C 92 % 1010,8 hPa 0,0 mm W-SW 252 0,0 km/h (0 Bft)
10.05.2013 04:00 12,6 C 93 % 1010,8 hPa 0,0 mm W-SW 252 1,6 km/h (1 Bft)
10.05.2013 04:05 12,3 C 92 % 1010,8 hPa 0,0 mm W-SW 252 0,0 km/h (0 Bft)
10.05.2013 04:10 12,1 C 92 % 1010,8 hPa 0,0 mm W-SW 252 1,6 km/h (1 Bft)
10.05.2013 04:15 12,2 C 93 % 1010,8 hPa 0,0 mm W-SW 252 1,6 km/h (1 Bft)
10.05.2013 04:20 12,4 C 93 % 1010,8 hPa 0,0 mm W-SW 252 3,2 km/h (1 Bft)
10.05.2013 04:25 12,3 C 93 % 1010,7 hPa 0,0 mm W-SW 252 1,6 km/h (1 Bft)
10.05.2013 04:30 12,2 C 93 % 1010,7 hPa 0,0 mm W-SW 252 1,6 km/h (1 Bft)
10.05.2013 04:35 12,2 C 93 % 1010,6 hPa 0,0 mm W-SW 252 1,6 km/h (1 Bft)
10.05.2013 04:40 12,3 C 93 % 1010,4 hPa 0,0 mm W-SW 252 0,0 km/h (0 Bft)
10.05.2013 04:45 12,3 C 93 % 1010,3 hPa 0,0 mm W-SW 252 3,2 km/h (1 Bft)
10.05.2013 04:50 12,3 C 93 % 1010,3 hPa 0,0 mm W-SW 252 0,0 km/h (0 Bft)
10.05.2013 04:55 12,2 C 93 % 1010,3 hPa 0,0 mm W-SW 252 0,0 km/h (0 Bft)
10.05.2013 05:00 12,0 C 93 % 1010,2 hPa 0,0 mm W-SW 252 0,0 km/h (0 Bft)
10.05.2013 05:05 11,9 C 93 % 1010,2 hPa 0,0 mm W-SW 252 0,0 km/h (0 Bft)
10.05.2013 05:10 11,8 C 93 % 1010,2 hPa 0,0 mm W-SW 252 0,0 km/h (0 Bft)
10.05.2013 05:15 11,8 C 93 % 1010,2 hPa 0,0 mm W-SW 252 0,0 km/h (0 Bft)
10.05.2013 05:20 11,9 C 94 % 1010,2 hPa 0,0 mm W-NW 292 4,8 km/h (1 Bft)
10.05.2013 05:25 12,1 C 94 % 1010,1 hPa 0,0 mm W-NW 292 3,2 km/h (1 Bft)
10.05.2013 05:30 11,9 C 93 % 1010,2 hPa 0,0 mm W-NW 292 0,0 km/h (0 Bft)
10.05.2013 05:35 11,6 C 93 % 1010,2 hPa 0,0 mm W-NW 292 0,0 km/h (0 Bft)
10.05.2013 05:40 11,7 C 94 % 1010,2 hPa 0,0 mm W-NW 292 3,2 km/h (1 Bft)
10.05.2013 05:45 11,9 C 94 % 1010,3 hPa 0,0 mm W 265 3,2 km/h (1 Bft)
10.05.2013 05:50 12,2 C 94 % 1010,3 hPa 0,0 mm W 265 1,6 km/h (1 Bft)
10.05.2013 05:55 12,3 C 94 % 1010,3 hPa 0,0 mm W 265 0,0 km/h (0 Bft)
10.05.2013 06:00 12,4 C 94 % 1010,2 hPa 0,0 mm W 265 0,0 km/h (0 Bft)
10.05.2013 06:05 12,5 C 94 % 1010,2 hPa 0,0 mm W 265 0,0 km/h (0 Bft)
10.05.2013 06:10 12,6 C 94 % 1010,3 hPa 0,0 mm W 265 0,0 km/h (0 Bft)
10.05.2013 06:15 12,7 C 94 % 1010,2 hPa 0,0 mm W 265 0,0 km/h (0 Bft)
10.05.2013 06:20 12,9 C 94 % 1010,3 hPa 0,0 mm W 265 0,0 km/h (0 Bft)
10.05.2013 06:25 13,1 C 94 % 1010,3 hPa 0,0 mm W 265 0,0 km/h (0 Bft)
10.05.2013 06:30 13,3 C 93 % 1010,3 hPa 0,0 mm W 265 0,0 km/h (0 Bft)
10.05.2013 06:35 13,5 C 93 % 1010,3 hPa 0,0 mm W 265 0,0 km/h (0 Bft)
10.05.2013 06:40 13,7 C 93 % 1010,3 hPa 0,0 mm W 265 0,0 km/h (0 Bft)
10.05.2013 06:45 13,8 C 93 % 1010,2 hPa 0,0 mm W 265 0,0 km/h (0 Bft)
10.05.2013 06:50 14,0 C 93 % 1010,3 hPa 0,0 mm W 265 0,0 km/h (0 Bft)
10.05.2013 06:55 14,2 C 93 % 1010,4 hPa 0,0 mm W 265 3,2 km/h (1 Bft)
10.05.2013 07:00 14,4 C 92 % 1010,4 hPa 0,0 mm W 265 1,6 km/h (1 Bft)
10.05.2013 07:05 14,4 C 92 % 1010,4 hPa 0,0 mm W 279 4,8 km/h (1 Bft)
10.05.2013 07:10 14,5 C 92 % 1010,4 hPa 0,0 mm W 271 6,4 km/h (2 Bft)
10.05.2013 07:15 14,6 C 92 % 1010,5 hPa 0,0 mm W 270 6,4 km/h (2 Bft)
10.05.2013 07:20 14,6 C 91 % 1010,5 hPa 0,0 mm W 271 4,8 km/h (1 Bft)
10.05.2013 07:25 14,7 C 91 % 1010,5 hPa 0,0 mm W 267 4,8 km/h (1 Bft)
10.05.2013 07:30 14,7 C 91 % 1010,5 hPa 0,0 mm W 274 8,0 km/h (2 Bft)
10.05.2013 07:35 14,7 C 90 % 1010,6 hPa 0,0 mm W 274 6,4 km/h (2 Bft)
10.05.2013 07:40 14,7 C 90 % 1010,6 hPa 0,0 mm W 275 6,4 km/h (2 Bft)
10.05.2013 07:45 14,8 C 90 % 1010,6 hPa 0,0 mm W 281 6,4 km/h (2 Bft)
10.05.2013 07:50 14,8 C 90 % 1010,6 hPa 0,0 mm W 275 8,0 km/h (2 Bft)
10.05.2013 07:55 14,8 C 89 % 1010,6 hPa 0,0 mm W 272 9,7 km/h (2 Bft)
10.05.2013 08:00 14,8 C 89 % 1010,6 hPa 0,0 mm W 275 6,4 km/h (2 Bft)
10.05.2013 08:05 14,8 C 89 % 1010,6 hPa 0,0 mm W 267 6,4 km/h (2 Bft)
10.05.2013 08:10 14,8 C 89 % 1010,7 hPa 0,0 mm W 267 6,4 km/h (2 Bft)
10.05.2013 08:15 14,8 C 89 % 1010,7 hPa 0,0 mm W-SW 248 8,0 km/h (2 Bft)
10.05.2013 08:20 14,8 C 89 % 1010,8 hPa 0,0 mm W 274 6,4 km/h (2 Bft)
10.05.2013 08:25 14,8 C 89 % 1010,8 hPa 0,0 mm W 276 8,0 km/h (2 Bft)
10.05.2013 08:30 14,8 C 89 % 1010,9 hPa 0,0 mm W 265 6,4 km/h (2 Bft)
10.05.2013 08:35 14,8 C 89 % 1010,9 hPa 0,0 mm W 278 6,4 km/h (2 Bft)
10.05.2013 08:40 14,9 C 89 % 1010,9 hPa 0,0 mm W 269 6,4 km/h (2 Bft)
10.05.2013 08:45 14,9 C 89 % 1011,0 hPa 0,0 mm W 264 6,4 km/h (2 Bft)
10.05.2013 08:50 14,9 C 89 % 1011,0 hPa 0,0 mm W 270 6,4 km/h (2 Bft)
10.05.2013 08:55 14,9 C 89 % 1011,0 hPa 0,0 mm W 270 3,2 km/h (1 Bft)
10.05.2013 09:00 14,9 C 89 % 1011,1 hPa 0,0 mm W 266 4,8 km/h (1 Bft)
10.05.2013 09:05 14,8 C 90 % 1011,2 hPa 0,0 mm W 263 6,4 km/h (2 Bft)
10.05.2013 09:10 14,7 C 91 % 1011,2 hPa 0,0 mm W 275 8,0 km/h (2 Bft)
10.05.2013 09:15 14,7 C 92 % 1011,2 hPa 0,0 mm W 273 6,4 km/h (2 Bft)
10.05.2013 09:20 14,7 C 92 % 1011,3 hPa 0,0 mm W 273 6,4 km/h (2 Bft)
10.05.2013 09:25 14,6 C 92 % 1011,3 hPa 0,0 mm W 271 6,4 km/h (2 Bft)
10.05.2013 09:30 14,6 C 92 % 1011,4 hPa 0,0 mm W 260 6,4 km/h (2 Bft)
10.05.2013 09:35 14,6 C 92 % 1011,4 hPa 0,0 mm W 271 4,8 km/h (1 Bft)
10.05.2013 09:40 14,7 C 93 % 1011,5 hPa 0,0 mm W 273 3,2 km/h (1 Bft)
10.05.2013 09:45 14,9 C 92 % 1011,4 hPa 0,0 mm W 268 4,8 km/h (1 Bft)
10.05.2013 09:50 14,9 C 92 % 1011,5 hPa 0,0 mm W 275 4,8 km/h (1 Bft)
10.05.2013 09:55 14,9 C 92 % 1011,6 hPa 0,2 mm W 268 8,0 km/h (2 Bft)
10.05.2013 10:00 14,6 C 90 % 1011,8 hPa 0,6 mm W-NW 287 30,6 km/h (5 Bft)
10.05.2013 10:05 13,9 C 90 % 1011,9 hPa 0,2 mm W 263 27,4 km/h (4 Bft)
10.05.2013 10:10 13,6 C 91 % 1012,1 hPa 0,2 mm W 278 16,1 km/h (3 Bft)
10.05.2013 10:15 13,4 C 92 % 1012,3 hPa 0,0 mm W 265 19,3 km/h (3 Bft)
10.05.2013 10:20 13,2 C 92 % 1012,4 hPa 0,2 mm W 273 16,1 km/h (3 Bft)
10.05.2013 10:25 13,1 C 92 % 1012,4 hPa 0,2 mm W 279 16,1 km/h (3 Bft)
10.05.2013 10:30 12,9 C 92 % 1012,4 hPa 0,0 mm W 276 19,3 km/h (3 Bft)
10.05.2013 10:35 12,9 C 92 % 1012,5 hPa 0,0 mm W 275 19,3 km/h (3 Bft)
10.05.2013 10:40 12,9 C 92 % 1012,5 hPa 0,2 mm W-NW 288 12,9 km/h (3 Bft)
10.05.2013 10:45 13,0 C 92 % 1012,5 hPa 0,0 mm W 273 16,1 km/h (3 Bft)
10.05.2013 10:50 13,0 C 92 % 1012,5 hPa 0,0 mm SW 234 16,1 km/h (3 Bft)
10.05.2013 10:55 13,0 C 92 % 1012,6 hPa 0,2 mm W 273 17,7 km/h (3 Bft)
10.05.2013 11:00 13,1 C 92 % 1012,6 hPa 0,0 mm W 276 19,3 km/h (3 Bft)
10.05.2013 11:05 13,1 C 92 % 1012,7 hPa 0,0 mm SW 236 22,5 km/h (4 Bft)
10.05.2013 11:10 13,1 C 92 % 1012,7 hPa 0,4 mm W-SW 253 19,3 km/h (3 Bft)
10.05.2013 11:15 13,1 C 92 % 1012,8 hPa 0,0 mm W 259 19,3 km/h (3 Bft)
10.05.2013 11:20 13,1 C 92 % 1012,9 hPa 0,2 mm W 269 17,7 km/h (3 Bft)
10.05.2013 11:25 13,1 C 92 % 1012,9 hPa 0,0 mm W 277 17,7 km/h (3 Bft)
10.05.2013 11:30 13,0 C 92 % 1013,0 hPa 0,2 mm W 267 17,7 km/h (3 Bft)
10.05.2013 11:35 12,9 C 92 % 1013,0 hPa 0,0 mm W 269 20,9 km/h (4 Bft)
10.05.2013 11:40 12,8 C 92 % 1013,1 hPa 0,4 mm W-SW 253 20,9 km/h (4 Bft)
10.05.2013 11:45 12,8 C 92 % 1013,1 hPa 0,2 mm W-SW 243 19,3 km/h (3 Bft)
10.05.2013 11:50 12,7 C 92 % 1013,3 hPa 0,2 mm W 279 16,1 km/h (3 Bft)
10.05.2013 11:55 12,7 C 93 % 1013,4 hPa 0,0 mm W 275 14,5 km/h (3 Bft)
10.05.2013 12:00 12,6 C 93 % 1013,4 hPa 0,2 mm W 263 17,7 km/h (3 Bft)
10.05.2013 12:05 12,6 C 93 % 1013,4 hPa 0,2 mm W 279 14,5 km/h (3 Bft)
10.05.2013 12:10 12,6 C 93 % 1013,5 hPa 0,4 mm W-SW 255 14,5 km/h (3 Bft)
10.05.2013 12:15 12,6 C 93 % 1013,5 hPa 0,2 mm W-SW 257 14,5 km/h (3 Bft)
10.05.2013 12:20 12,6 C 93 % 1013,6 hPa 0,2 mm W 276 16,1 km/h (3 Bft)
10.05.2013 12:25 12,8 C 93 % 1013,6 hPa 0,0 mm W 281 17,7 km/h (3 Bft)
10.05.2013 12:30 12,9 C 93 % 1013,7 hPa 0,2 mm W 262 16,1 km/h (3 Bft)
10.05.2013 12:35 13,0 C 93 % 1013,7 hPa 0,0 mm W 272 11,3 km/h (2 Bft)
10.05.2013 12:40 13,1 C 93 % 1013,7 hPa 0,2 mm W 260 14,5 km/h (3 Bft)
10.05.2013 12:45 13,2 C 93 % 1013,8 hPa 0,0 mm W 270 16,1 km/h (3 Bft)
10.05.2013 12:50 13,1 C 92 % 1013,9 hPa 0,0 mm W-SW 252 12,9 km/h (3 Bft)
10.05.2013 12:55 13,1 C 92 % 1013,9 hPa 0,0 mm W 267 16,1 km/h (3 Bft)
10.05.2013 13:00 13,1 C 92 % 1013,9 hPa 0,0 mm W 280 12,9 km/h (3 Bft)
10.05.2013 13:05 13,1 C 92 % 1013,9 hPa 0,0 mm W-SW 254 12,9 km/h (3 Bft)
10.05.2013 13:10 13,1 C 92 % 1014,0 hPa 0,0 mm W 260 12,9 km/h (3 Bft)
10.05.2013 13:15 13,1 C 92 % 1014,1 hPa 0,0 mm W 260 14,5 km/h (3 Bft)
10.05.2013 13:20 13,0 C 92 % 1014,1 hPa 0,0 mm W-NW 292 14,5 km/h (3 Bft)
10.05.2013 13:25 12,9 C 92 % 1014,2 hPa 0,0 mm W 266 12,9 km/h (3 Bft)
10.05.2013 13:30 12,9 C 92 % 1014,2 hPa 0,2 mm W 275 9,7 km/h (2 Bft)
10.05.2013 13:35 12,8 C 92 % 1014,2 hPa 0,0 mm W 270 16,1 km/h (3 Bft)
10.05.2013 13:40 12,7 C 92 % 1014,2 hPa 0,2 mm W-NW 294 12,9 km/h (3 Bft)
10.05.2013 13:45 12,8 C 92 % 1014,2 hPa 0,0 mm NW 307 11,3 km/h (2 Bft)
10.05.2013 13:50 12,8 C 92 % 1014,3 hPa 0,0 mm W 262 12,9 km/h (3 Bft)
10.05.2013 13:55 12,9 C 92 % 1014,2 hPa 0,0 mm W 266 11,3 km/h (2 Bft)
10.05.2013 14:00 13,1 C 92 % 1014,3 hPa 0,2 mm W-SW 242 9,7 km/h (2 Bft)
10.05.2013 14:05 13,4 C 92 % 1014,2 hPa 0,0 mm W 280 9,7 km/h (2 Bft)
10.05.2013 14:10 13,5 C 91 % 1014,3 hPa 0,0 mm W 270 11,3 km/h (2 Bft)
10.05.2013 14:15 13,6 C 92 % 1014,2 hPa 0,0 mm W 275 9,7 km/h (2 Bft)
10.05.2013 14:20 13,6 C 91 % 1014,2 hPa 0,0 mm W-NW 294 9,7 km/h (2 Bft)
10.05.2013 14:25 13,7 C 91 % 1014,3 hPa 0,2 mm W-SW 257 9,7 km/h (2 Bft)
10.05.2013 14:30 13,6 C 90 % 1014,2 hPa 0,0 mm W 263 11,3 km/h (2 Bft)
10.05.2013 14:35 13,6 C 91 % 1014,3 hPa 0,0 mm W-SW 255 12,9 km/h (3 Bft)
10.05.2013 14:40 13,4 C 91 % 1014,3 hPa 0,0 mm W 273 8,0 km/h (2 Bft)
10.05.2013 14:45 13,4 C 91 % 1014,2 hPa 0,2 mm W-SW 250 6,4 km/h (2 Bft)
10.05.2013 14:50 13,3 C 91 % 1014,2 hPa 0,0 mm W-SW 249 9,7 km/h (2 Bft)
10.05.2013 14:55 13,3 C 92 % 1014,3 hPa 0,2 mm W-NW 282 6,4 km/h (2 Bft)
10.05.2013 15:00 13,2 C 91 % 1014,4 hPa 0,2 mm W-SW 241 12,9 km/h (3 Bft)
10.05.2013 15:05 12,8 C 90 % 1014,4 hPa 0,2 mm W-SW 247 6,4 km/h (2 Bft)
10.05.2013 15:10 12,6 C 91 % 1014,5 hPa 0,2 mm W-SW 257 6,4 km/h (2 Bft)
10.05.2013 15:15 12,4 C 90 % 1014,5 hPa 0,2 mm W 275 8,0 km/h (2 Bft)
10.05.2013 15:20 12,3 C 91 % 1014,5 hPa 0,2 mm W 265 6,4 km/h (2 Bft)
10.05.2013 15:25 12,3 C 92 % 1014,6 hPa 0,2 mm W-NW 300 8,0 km/h (2 Bft)
10.05.2013 15:30 12,2 C 92 % 1014,6 hPa 0,0 mm W-NW 282 9,7 km/h (2 Bft)
10.05.2013 15:35 12,1 C 93 % 1014,6 hPa 0,2 mm W-NW 294 6,4 km/h (2 Bft)
10.05.2013 15:40 12,4 C 93 % 1014,5 hPa 0,2 mm W-NW 286 4,8 km/h (1 Bft)
10.05.2013 15:45 12,7 C 93 % 1014,5 hPa 0,0 mm W-NW 293 6,4 km/h (2 Bft)
10.05.2013 15:50 12,8 C 93 % 1014,5 hPa 0,0 mm W-NW 296 4,8 km/h (1 Bft)
10.05.2013 15:55 12,9 C 92 % 1014,5 hPa 0,0 mm W-SW 248 1,6 km/h (1 Bft)
10.05.2013 16:00 13,0 C 93 % 1014,5 hPa 0,0 mm NW 306 4,8 km/h (1 Bft)
10.05.2013 16:05 12,9 C 92 % 1014,4 hPa 0,0 mm NW 307 3,2 km/h (1 Bft)
10.05.2013 16:10 12,9 C 93 % 1014,5 hPa 0,0 mm W-NW 289 4,8 km/h (1 Bft)
10.05.2013 16:15 12,8 C 92 % 1014,6 hPa 0,2 mm W 277 4,8 km/h (1 Bft)
10.05.2013 16:20 12,7 C 92 % 1014,6 hPa 0,2 mm W 276 8,0 km/h (2 Bft)
10.05.2013 16:25 12,6 C 93 % 1014,7 hPa 0,2 mm W 266 8,0 km/h (2 Bft)
10.05.2013 16:30 12,6 C 93 % 1014,6 hPa 0,2 mm W 260 8,0 km/h (2 Bft)
10.05.2013 16:35 12,6 C 93 % 1014,7 hPa 0,0 mm W 265 6,4 km/h (2 Bft)
10.05.2013 16:40 12,6 C 93 % 1014,8 hPa 0,0 mm W-SW 256 6,4 km/h (2 Bft)
10.05.2013 16:45 12,5 C 93 % 1014,8 hPa 0,0 mm W 261 8,0 km/h (2 Bft)
10.05.2013 16:50 12,6 C 93 % 1014,8 hPa 0,0 mm W 277 3,2 km/h (1 Bft)
10.05.2013 16:55 12,4 C 93 % 1014,8 hPa 0,2 mm W-SW 258 6,4 km/h (2 Bft)
10.05.2013 17:00 12,4 C 93 % 1014,8 hPa 0,0 mm W 267 4,8 km/h (1 Bft)
10.05.2013 17:05 12,3 C 93 % 1014,8 hPa 0,0 mm W 262 6,4 km/h (2 Bft)
10.05.2013 17:10 12,3 C 93 % 1014,8 hPa 0,2 mm W 269 6,4 km/h (2 Bft)
10.05.2013 17:15 12,2 C 93 % 1014,9 hPa 0,4 mm W 274 4,8 km/h (1 Bft)
10.05.2013 17:20 12,2 C 93 % 1014,9 hPa 0,2 mm W 270 4,8 km/h (1 Bft)
10.05.2013 17:25 12,2 C 93 % 1014,9 hPa 0,2 mm W 261 8,0 km/h (2 Bft)
10.05.2013 17:30 12,1 C 93 % 1014,9 hPa 0,4 mm W-NW 283 6,4 km/h (2 Bft)
10.05.2013 17:35 12,0 C 94 % 1014,9 hPa 0,8 mm W 275 4,8 km/h (1 Bft)
10.05.2013 17:40 11,9 C 94 % 1014,9 hPa 0,4 mm W 265 4,8 km/h (1 Bft)
10.05.2013 17:45 11,9 C 94 % 1014,9 hPa 0,4 mm W 265 3,2 km/h (1 Bft)
10.05.2013 17:50 11,9 C 94 % 1014,9 hPa 0,0 mm W 265 1,6 km/h (1 Bft)
10.05.2013 17:55 11,9 C 94 % 1015,0 hPa 0,0 mm W 269 8,0 km/h (2 Bft)
10.05.2013 18:00 11,9 C 94 % 1015,0 hPa 0,2 mm W 277 8,0 km/h (2 Bft)
10.05.2013 18:05 11,9 C 94 % 1015,0 hPa 0,0 mm W-NW 284 6,4 km/h (2 Bft)
10.05.2013 18:10 11,9 C 94 % 1015,0 hPa 0,2 mm W-NW 284 3,2 km/h (1 Bft)
10.05.2013 18:15 11,9 C 94 % 1015,1 hPa 0,0 mm W 271 4,8 km/h (1 Bft)
10.05.2013 18:20 12,0 C 94 % 1015,1 hPa 0,0 mm W-NW 284 4,8 km/h (1 Bft)
10.05.2013 18:25 11,9 C 94 % 1015,1 hPa 0,2 mm W 267 8,0 km/h (2 Bft)
10.05.2013 18:30 11,9 C 94 % 1015,1 hPa 0,0 mm W 267 6,4 km/h (2 Bft)
10.05.2013 18:35 11,9 C 94 % 1015,1 hPa 0,2 mm W 265 4,8 km/h (1 Bft)
10.05.2013 18:40 11,9 C 93 % 1015,1 hPa 0,0 mm W 262 3,2 km/h (1 Bft)
10.05.2013 18:45 11,8 C 93 % 1015,2 hPa 0,4 mm W-NW 286 3,2 km/h (1 Bft)
10.05.2013 18:50 11,8 C 93 % 1015,2 hPa 0,4 mm W-NW 290 3,2 km/h (1 Bft)
10.05.2013 18:55 11,7 C 94 % 1015,3 hPa 0,4 mm W-SW 257 4,8 km/h (1 Bft)
10.05.2013 19:00 11,7 C 94 % 1015,4 hPa 0,0 mm W-SW 258 6,4 km/h (2 Bft)
10.05.2013 19:05 11,7 C 94 % 1015,4 hPa 0,2 mm W-SW 258 1,6 km/h (1 Bft)
10.05.2013 19:10 11,7 C 94 % 1015,6 hPa 0,0 mm W-SW 258 0,0 km/h (0 Bft)
10.05.2013 19:15 11,7 C 94 % 1015,6 hPa 0,2 mm W-SW 258 3,2 km/h (1 Bft)
10.05.2013 19:20 11,7 C 94 % 1015,6 hPa 0,0 mm W-SW 258 1,6 km/h (1 Bft)
10.05.2013 19:25 11,7 C 94 % 1015,6 hPa 0,0 mm W-SW 258 1,6 km/h (1 Bft)
10.05.2013 19:30 11,7 C 94 % 1015,7 hPa 0,0 mm W-SW 258 1,6 km/h (1 Bft)
10.05.2013 19:35 11,7 C 94 % 1015,7 hPa 0,2 mm W-SW 258 1,6 km/h (1 Bft)
10.05.2013 19:40 11,6 C 94 % 1015,7 hPa 0,0 mm W-SW 258 0,0 km/h (0 Bft)
10.05.2013 19:45 11,6 C 94 % 1015,8 hPa 0,2 mm W-SW 258 1,6 km/h (1 Bft)
10.05.2013 19:50 11,6 C 94 % 1015,9 hPa 0,0 mm W-SW 258 3,2 km/h (1 Bft)
10.05.2013 19:55 11,6 C 94 % 1015,9 hPa 0,0 mm W-SW 258 0,0 km/h (0 Bft)
10.05.2013 20:00 11,6 C 94 % 1016,0 hPa 0,0 mm W-SW 258 1,6 km/h (1 Bft)
10.05.2013 20:05 11,6 C 94 % 1016,1 hPa 0,0 mm W-SW 258 1,6 km/h (1 Bft)
10.05.2013 20:10 11,6 C 94 % 1016,1 hPa 0,0 mm W-NW 292 3,2 km/h (1 Bft)
10.05.2013 20:15 11,6 C 94 % 1016,1 hPa 0,0 mm W-NW 283 3,2 km/h (1 Bft)
10.05.2013 20:20 11,5 C 94 % 1016,2 hPa 0,2 mm W 268 4,8 km/h (1 Bft)
10.05.2013 20:25 11,5 C 94 % 1016,3 hPa 0,0 mm W-SW 257 6,4 km/h (2 Bft)
10.05.2013 20:30 11,4 C 94 % 1016,2 hPa 0,2 mm W 275 4,8 km/h (1 Bft)
10.05.2013 20:35 11,3 C 94 % 1016,3 hPa 0,0 mm W 275 4,8 km/h (1 Bft)
10.05.2013 20:40 11,3 C 94 % 1016,4 hPa 0,0 mm W 276 6,4 km/h (2 Bft)
10.05.2013 20:45 11,2 C 94 % 1016,4 hPa 0,2 mm W 276 3,2 km/h (1 Bft)
10.05.2013 20:50 11,2 C 94 % 1016,5 hPa 0,0 mm W 276 4,8 km/h (1 Bft)
10.05.2013 20:55 11,1 C 94 % 1016,6 hPa 0,0 mm W 269 8,0 km/h (2 Bft)
10.05.2013 21:00 10,9 C 94 % 1016,7 hPa 0,2 mm W 273 6,4 km/h (2 Bft)
10.05.2013 21:05 10,9 C 94 % 1016,7 hPa 0,0 mm W 265 4,8 km/h (1 Bft)
10.05.2013 21:10 10,9 C 94 % 1016,8 hPa 0,0 mm W 280 4,8 km/h (1 Bft)
10.05.2013 21:15 10,8 C 94 % 1016,9 hPa 0,0 mm W 279 3,2 km/h (1 Bft)
10.05.2013 21:20 10,8 C 94 % 1017,0 hPa 0,2 mm W 279 3,2 km/h (1 Bft)
10.05.2013 21:25 10,8 C 94 % 1017,1 hPa 0,2 mm W 273 4,8 km/h (1 Bft)
10.05.2013 21:30 10,8 C 94 % 1017,2 hPa 0,4 mm W 273 3,2 km/h (1 Bft)
10.05.2013 21:35 10,8 C 94 % 1017,2 hPa 0,0 mm W 263 4,8 km/h (1 Bft)
10.05.2013 21:40 10,8 C 94 % 1017,2 hPa 0,2 mm W 278 4,8 km/h (1 Bft)
10.05.2013 21:45 10,7 C 94 % 1017,3 hPa 0,0 mm W 266 9,7 km/h (2 Bft)
10.05.2013 21:50 10,6 C 94 % 1017,4 hPa 0,0 mm W 265 6,4 km/h (2 Bft)
10.05.2013 21:55 10,6 C 94 % 1017,5 hPa 0,2 mm W 275 8,0 km/h (2 Bft)
10.05.2013 22:00 10,6 C 94 % 1017,6 hPa 0,0 mm W 259 6,4 km/h (2 Bft)
10.05.2013 22:05 10,4 C 93 % 1017,6 hPa 0,2 mm W 259 3,2 km/h (1 Bft)
10.05.2013 22:10 10,4 C 93 % 1017,6 hPa 0,0 mm W 266 4,8 km/h (1 Bft)
10.05.2013 22:15 10,4 C 93 % 1017,7 hPa 0,2 mm W 277 4,8 km/h (1 Bft)
10.05.2013 22:20 10,3 C 93 % 1017,7 hPa 0,0 mm W 272 8,0 km/h (2 Bft)
10.05.2013 22:25 10,3 C 93 % 1017,7 hPa 0,0 mm W 272 0,0 km/h (0 Bft)
10.05.2013 22:30 10,4 C 93 % 1017,8 hPa 0,2 mm W 273 3,2 km/h (1 Bft)
10.05.2013 22:35 10,4 C 94 % 1017,7 hPa 0,0 mm W 273 1,6 km/h (1 Bft)
10.05.2013 22:40 10,4 C 94 % 1017,7 hPa 0,0 mm W 261 8,0 km/h (2 Bft)
10.05.2013 22:45 10,3 C 94 % 1017,7 hPa 0,2 mm W 268 4,8 km/h (1 Bft)
10.05.2013 22:50 10,2 C 94 % 1017,7 hPa 0,0 mm W 268 0,0 km/h (0 Bft)
10.05.2013 22:55 10,2 C 94 % 1017,7 hPa 0,0 mm W 268 0,0 km/h (0 Bft)
10.05.2013 23:00 10,2 C 94 % 1017,8 hPa 0,0 mm W 268 0,0 km/h (0 Bft)
10.05.2013 23:05 10,1 C 94 % 1017,9 hPa 0,0 mm W 268 0,0 km/h (0 Bft)
10.05.2013 23:10 10,0 C 94 % 1017,9 hPa 0,0 mm W 268 0,0 km/h (0 Bft)
10.05.2013 23:15 9,9 C 94 % 1017,8 hPa 0,0 mm W 268 1,6 km/h (1 Bft)
10.05.2013 23:20 9,8 C 94 % 1017,8 hPa 0,0 mm W 268 0,0 km/h (0 Bft)
10.05.2013 23:25 9,7 C 93 % 1017,8 hPa 0,0 mm W 268 1,6 km/h (1 Bft)
10.05.2013 23:30 9,6 C 93 % 1017,8 hPa 0,0 mm W 268 1,6 km/h (1 Bft)
10.05.2013 23:35 9,6 C 93 % 1017,8 hPa 0,0 mm W 268 0,0 km/h (0 Bft)
10.05.2013 23:40 9,7 C 93 % 1017,8 hPa 0,2 mm W 268 0,0 km/h (0 Bft)
10.05.2013 23:45 9,7 C 93 % 1017,7 hPa 0,0 mm W 268 1,6 km/h (1 Bft)
10.05.2013 23:50 9,7 C 93 % 1017,7 hPa 0,0 mm W 268 0,0 km/h (0 Bft)
10.05.2013 23:55 9,7 C 94 % 1017,7 hPa 0,0 mm W 268 0,0 km/h (0 Bft)
_ Min-Zeit 23:30 00:00 05:25 - - - 00:40
Minimum _ 9,6 C 81 % 1010,1 hPa - - - 0,0 km/h (0 Bft)
_ Max-Zeit 00:00 05:20 23:05 17:35 - - 10:00
Maximum _ 16,6 C 94 % 1017,9 hPa 0,8 mm - - 30,6 km/h
W (5 Bft)
Durchschnitt _ 12,8 C 92 % 1013,4 hPa #17,8 mm W - 5,8 km/h (2 Bft)